TimeEDT,TemperatureF,Dew PointF,Humidity,Sea Level PressureIn,VisibilityMPH,Wind Direction,Wind SpeedMPH,Gust SpeedMPH,PrecipitationIn,Events,Conditions,WindDirDegrees,DateUTC
12:15 AM,45.1,42.8,91,30.40,10.0,Calm,Calm,-,N/A,,Clear,0,2013-10-14 04:15:00
12:36 AM,42.1,40.5,94,30.40,10.0,Calm,Calm,-,N/A,,Clear,0,2013-10-14 04:36:00
12:56 AM,40.8,39.6,95,30.40,10.0,Calm,Calm,-,N/A,,Clear,0,2013-10-14 04:56:00
1:16 AM,41.2,40.1,96,30.40,10.0,Calm,Calm,-,N/A,,Clear,0,2013-10-14 05:16:00
1:36 AM,39.0,37.9,96,30.41,3.0,Calm,Calm,-,N/A,,Clear,0,2013-10-14 05:36:00
1:56 AM,40.1,39.2,97,30.42,7.0,Calm,Calm,-,N/A,,Clear,0,2013-10-14 05:56:00
2:16 AM,38.3,37.4,97,30.42,4.0,Calm,Calm,-,N/A,,Clear,0,2013-10-14 06:16:00
2:36 AM,37.9,37.0,97,30.42,7.0,Calm,Calm,-,N/A,,Clear,0,2013-10-14 06:36:00
2:56 AM,38.1,37.4,97,30.43,7.0,Calm,Calm,-,N/A,,Clear,0,2013-10-14 06:56:00
3:16 AM,37.6,36.9,97,30.43,10.0,Calm,Calm,-,N/A,,Clear,0,2013-10-14 07:16:00
3:36 AM,36.3,35.8,98,30.43,3.0,Calm,Calm,-,N/A,,Clear,0,2013-10-14 07:36:00
3:56 AM,36.7,36.0,97,30.43,3.0,Calm,Calm,-,N/A,,Clear,0,2013-10-14 07:56:00
4:16 AM,35.6,35.1,98,30.43,1.5,Calm,Calm,-,N/A,,Mist,0,2013-10-14 08:16:00
4:36 AM,36.3,35.8,98,30.43,1.5,Calm,Calm,-,N/A,,Scattered Clouds,0,2013-10-14 08:36:00
4:56 AM,35.2,34.7,98,30.44,0.8,Calm,Calm,-,N/A,,Mostly Cloudy,0,2013-10-14 08:56:00
5:16 AM,34.7,34.2,98,30.44,1.8,Calm,Calm,-,N/A,,Scattered Clouds,0,2013-10-14 09:16:00
5:36 AM,34.7,34.2,98,30.44,3.0,Calm,Calm,-,N/A,,Clear,0,2013-10-14 09:36:00
5:56 AM,33.6,32.9,97,30.45,2.5,Calm,Calm,-,N/A,,Clear,0,2013-10-14 09:56:00
6:16 AM,33.3,32.7,98,30.45,2.0,Calm,Calm,-,N/A,,Clear,0,2013-10-14 10:16:00
6:36 AM,33.6,32.9,97,30.45,10.0,Calm,Calm,-,N/A,,Clear,0,2013-10-14 10:36:00
6:56 AM,33.8,33.1,97,30.45,10.0,Calm,Calm,-,N/A,,Clear,0,2013-10-14 10:56:00
7:16 AM,32.9,32.4,98,30.45,7.0,Calm,Calm,-,N/A,,Clear,0,2013-10-14 11:16:00
7:36 AM,32.4,32.0,99,30.45,7.0,Calm,Calm,-,N/A,,Clear,0,2013-10-14 11:36:00
7:56 AM,32.0,32.0,100,30.44,10.0,Calm,Calm,-,N/A,,Scattered Clouds,0,2013-10-14 11:56:00
8:16 AM,32.2,32.0,99,30.44,10.0,Calm,Calm,-,N/A,,Mostly Cloudy,0,2013-10-14 12:16:00
8:36 AM,32.5,32.2,99,30.45,4.0,Calm,Calm,-,N/A,,Scattered Clouds,0,2013-10-14 12:36:00
8:56 AM,34.7,34.2,98,30.45,10.0,Calm,Calm,-,N/A,,Clear,0,2013-10-14 12:56:00
9:16 AM,37.8,37.4,99,30.44,10.0,Calm,Calm,-,N/A,,Clear,0,2013-10-14 13:16:00
9:36 AM,39.9,39.4,98,30.45,10.0,Calm,Calm,-,N/A,,Clear,0,2013-10-14 13:36:00
9:56 AM,42.1,41.5,98,30.46,10.0,Calm,Calm,-,N/A,,Clear,0,2013-10-14 13:56:00
10:16 AM,43.9,43.2,97,30.46,10.0,Calm,Calm,-,N/A,,Clear,0,2013-10-14 14:16:00
10:36 AM,46.4,42.1,85,30.45,10.0,Calm,Calm,-,N/A,,Clear,0,2013-10-14 14:36:00
10:56 AM,47.8,40.8,77,30.44,10.0,Calm,Calm,-,N/A,,Clear,0,2013-10-14 14:56:00
11:56 AM,54.7,36.1,50,30.43,10.0,East,3.5,-,N/A,,Clear,100,2013-10-14 15:56:00
12:16 PM,55.6,36.7,49,30.42,10.0,NNE,9.2,-,N/A,,Clear,30,2013-10-14 16:16:00
12:36 PM,55.0,37.0,51,30.41,10.0,Calm,Calm,-,N/A,,Clear,0,2013-10-14 16:36:00
12:56 PM,55.8,37.0,49,30.41,10.0,NNE,5.8,-,N/A,,Clear,30,2013-10-14 16:56:00
1:16 PM,56.3,37.4,49,30.41,10.0,North,4.6,-,N/A,,Clear,360,2013-10-14 17:16:00
1:36 PM,56.3,37.4,49,30.41,10.0,NW,3.5,-,N/A,,Clear,320,2013-10-14 17:36:00
1:56 PM,57.2,37.2,47,30.41,10.0,WNW,4.6,-,N/A,,Clear,300,2013-10-14 17:56:00
2:16 PM,58.1,37.2,46,30.40,10.0,Calm,Calm,-,N/A,,Clear,0,2013-10-14 18:16:00
2:36 PM,58.1,37.0,45,30.40,10.0,North,3.5,-,N/A,,Clear,360,2013-10-14 18:36:00
2:56 PM,58.8,37.6,45,30.38,10.0,NW,6.9,-,N/A,,Clear,320,2013-10-14 18:56:00
3:16 PM,59.0,37.8,45,30.37,10.0,NNW,6.9,-,N/A,,Clear,330,2013-10-14 19:16:00
3:36 PM,59.2,37.9,45,30.36,10.0,NNW,5.8,-,N/A,,Clear,330,2013-10-14 19:36:00
3:56 PM,59.2,36.7,43,30.35,10.0,North,5.8,-,N/A,,Clear,10,2013-10-14 19:56:00
4:16 PM,59.5,36.5,42,30.34,10.0,NE,4.6,-,N/A,,Clear,40,2013-10-14 20:16:00
4:36 PM,59.9,36.5,42,30.33,10.0,Calm,Calm,-,N/A,,Clear,0,2013-10-14 20:36:00
4:56 PM,59.2,36.9,43,30.32,10.0,NNE,3.5,-,N/A,,Clear,20,2013-10-14 20:56:00
5:16 PM,58.1,41.0,53,30.32,10.0,WNW,5.8,-,N/A,,Clear,290,2013-10-14 21:16:00
5:36 PM,56.8,41.7,57,30.32,10.0,NW,3.5,-,N/A,,Clear,320,2013-10-14 21:36:00
5:56 PM,56.3,42.1,59,30.32,10.0,Calm,Calm,-,N/A,,Clear,0,2013-10-14 21:56:00
6:16 PM,55.4,42.8,63,30.32,10.0,NW,4.6,-,N/A,,Clear,310,2013-10-14 22:16:00
6:36 PM,54.5,42.1,63,30.32,10.0,North,5.8,-,N/A,,Clear,10,2013-10-14 22:36:00
6:57 PM,52.9,42.4,68,30.31,10.0,Calm,Calm,-,N/A,,Clear,0,2013-10-14 22:57:00
7:16 PM,49.6,43.0,78,30.31,10.0,Calm,Calm,-,N/A,,Clear,0,2013-10-14 23:16:00
7:36 PM,47.8,42.8,83,30.31,10.0,Calm,Calm,-,N/A,,Clear,0,2013-10-14 23:36:00
7:57 PM,44.6,41.2,88,30.31,10.0,Calm,Calm,-,N/A,,Clear,0,2013-10-14 23:57:00
8:16 PM,44.8,41.9,90,30.30,10.0,Calm,Calm,-,N/A,,Clear,0,2013-10-15 00:16:00
8:36 PM,44.4,41.5,90,30.30,10.0,Calm,Calm,-,N/A,,Clear,0,2013-10-15 00:36:00
8:57 PM,44.1,41.7,91,30.30,10.0,Calm,Calm,-,N/A,,Clear,0,2013-10-15 00:57:00
9:16 PM,42.1,40.3,93,30.29,10.0,Calm,Calm,-,N/A,,Clear,0,2013-10-15 01:16:00
9:36 PM,43.0,41.7,95,30.30,10.0,Calm,Calm,-,N/A,,Clear,0,2013-10-15 01:36:00
9:56 PM,41.4,39.9,95,30.30,10.0,Calm,Calm,-,N/A,,Clear,0,2013-10-15 01:56:00
10:16 PM,41.0,39.6,95,30.29,10.0,Calm,Calm,-,N/A,,Clear,0,2013-10-15 02:16:00
10:37 PM,45.3,39.4,80,30.29,10.0,ENE,3.5,-,N/A,,Clear,70,2013-10-15 02:37:00
10:56 PM,43.7,38.7,82,30.30,10.0,West,3.5,-,N/A,,Clear,270,2013-10-15 02:56:00
11:16 PM,42.8,39.2,87,30.30,10.0,Calm,Calm,-,N/A,,Clear,0,2013-10-15 03:16:00
11:37 PM,40.3,37.8,91,30.29,10.0,Calm,Calm,-,N/A,,Clear,0,2013-10-15 03:37:00
11:56 PM,39.7,37.9,93,30.28,10.0,Calm,Calm,-,N/A,,Clear,0,2013-10-15 03:56:00